TimePST,TemperatureF,Dew PointF,Humidity,Sea Level PressureIn,VisibilityMPH,Wind Direction,Wind SpeedMPH,Gust SpeedMPH,PrecipitationIn,Events,Conditions,WindDirDegrees,DateUTC
12:07 AM,35.6,30.2,81,29.99,3.0,Calm,Calm,-,N/A,,Haze,0,2013-02-20 08:07:00
12:53 AM,37.9,33.1,83,30.02,10.0,SE,3.5,-,N/A,,Partly Cloudy,140,2013-02-20 08:53:00
1:08 AM,37.4,33.8,87,29.99,10.0,Calm,Calm,-,N/A,,Mostly Cloudy,0,2013-02-20 09:08:00
1:53 AM,39.0,34.0,82,30.03,10.0,Calm,Calm,-,N/A,,Overcast,0,2013-02-20 09:53:00
2:11 AM,37.4,33.8,87,30.00,10.0,Calm,Calm,-,N/A,,Overcast,0,2013-02-20 10:11:00
2:53 AM,37.9,33.1,83,30.04,10.0,Calm,Calm,-,N/A,,Overcast,0,2013-02-20 10:53:00
3:53 AM,39.0,34.0,82,30.04,10.0,Calm,Calm,-,N/A,,Overcast,0,2013-02-20 11:53:00
4:53 AM,39.2,35.6,87,30.02,10.0,Calm,Calm,-,N/A,,Overcast,0,2013-02-20 12:53:00
5:08 AM,39.2,35.6,87,30.02,10.0,Calm,Calm,-,N/A,,Overcast,0,2013-02-20 13:08:00
5:53 AM,39.9,35.1,83,30.04,10.0,Calm,Calm,-,N/A,,Overcast,0,2013-02-20 13:53:00
6:46 AM,39.2,33.8,81,30.01,10.0,North,3.5,-,N/A,,Overcast,350,2013-02-20 14:46:00
6:53 AM,39.0,34.0,82,30.04,10.0,Calm,Calm,-,N/A,,Overcast,0,2013-02-20 14:53:00
7:53 AM,39.9,35.1,83,30.04,6.0,Calm,Calm,-,0.00,Rain,Light Rain,0,2013-02-20 15:53:00
8:48 AM,42.8,37.4,81,30.01,7.0,SE,3.5,-,0.03,Rain,Light Rain,130,2013-02-20 16:48:00
8:53 AM,44.1,37.0,76,30.04,7.0,SE,3.5,-,0.03,Rain,Light Rain,140,2013-02-20 16:53:00
9:13 AM,44.6,37.4,76,30.01,10.0,SE,3.5,-,0.00,,Overcast,130,2013-02-20 17:13:00
9:53 AM,44.1,37.0,76,30.04,10.0,Calm,Calm,-,0.00,,Overcast,0,2013-02-20 17:53:00
10:53 AM,43.0,37.9,82,30.04,7.0,Calm,Calm,-,N/A,,Overcast,0,2013-02-20 18:53:00
11:53 AM,43.0,37.0,80,30.04,9.0,Calm,Calm,-,0.00,Rain,Light Rain,0,2013-02-20 19:53:00
12:53 PM,48.9,37.0,64,30.01,10.0,SE,8.1,-,0.00,,Overcast,130,2013-02-20 20:53:00
1:00 PM,48.2,35.6,62,29.99,10.0,SE,6.9,-,N/A,,Partly Cloudy,140,2013-02-20 21:00:00
1:29 PM,48.2,35.6,62,29.99,10.0,Variable,4.6,-,N/A,,Mostly Cloudy,0,2013-02-20 21:29:00
1:53 PM,48.0,36.0,63,30.01,10.0,Variable,4.6,-,0.00,Rain,Light Rain,0,2013-02-20 21:53:00
2:03 PM,48.2,35.6,62,29.99,10.0,SSE,5.8,-,0.00,Rain,Light Rain,160,2013-02-20 22:03:00
2:53 PM,45.0,37.9,76,30.02,10.0,NE,3.5,-,0.01,Rain,Light Rain,40,2013-02-20 22:53:00
3:53 PM,44.1,37.9,79,30.02,7.0,NNE,4.6,-,0.01,Rain,Light Rain,20,2013-02-20 23:53:00
4:24 PM,44.6,39.2,81,29.99,8.0,NE,4.6,-,0.00,,Overcast,40,2013-02-21 00:24:00
4:53 PM,46.0,37.9,73,30.02,10.0,Calm,Calm,-,0.00,,Overcast,0,2013-02-21 00:53:00
5:53 PM,43.0,37.9,82,30.03,10.0,NNE,3.5,-,N/A,,Mostly Cloudy,30,2013-02-21 01:53:00
6:53 PM,39.9,35.1,83,30.03,10.0,Calm,Calm,-,N/A,,Mostly Cloudy,0,2013-02-21 02:53:00
7:53 PM,39.2,33.8,81,30.01,10.0,Calm,Calm,-,N/A,,Mostly Cloudy,0,2013-02-21 03:53:00
8:53 PM,39.0,34.0,82,30.05,10.0,Calm,Calm,-,N/A,,Overcast,0,2013-02-21 04:53:00
9:10 PM,39.2,33.8,81,30.02,6.0,Calm,Calm,-,N/A,,Haze,0,2013-02-21 05:10:00
9:53 PM,39.0,34.0,82,30.05,10.0,Calm,Calm,-,N/A,,Mostly Cloudy,0,2013-02-21 05:53:00
10:05 PM,37.4,33.8,87,30.02,1.5,Calm,Calm,-,N/A,,Haze,0,2013-02-21 06:05:00
10:17 PM,37.4,33.8,87,30.02,10.0,Calm,Calm,-,N/A,,Partly Cloudy,0,2013-02-21 06:17:00
10:53 PM,36.0,32.0,86,30.04,10.0,Calm,Calm,-,N/A,,Mostly Cloudy,0,2013-02-21 06:53:00
10:58 PM,35.6,32.0,87,30.01,0.8,Calm,Calm,-,N/A,,Mostly Cloudy,0,2013-02-21 06:58:00
11:16 PM,37.4,33.8,87,29.99,2.0,Calm,Calm,-,N/A,,Mostly Cloudy,0,2013-02-21 07:16:00
11:27 PM,37.4,33.8,87,30.00,4.0,Calm,Calm,-,N/A,,Scattered Clouds,0,2013-02-21 07:27:00
11:40 PM,35.6,32.0,87,29.99,2.0,Calm,Calm,-,N/A,,Partly Cloudy,0,2013-02-21 07:40:00
11:44 PM,35.6,30.2,81,29.99,0.8,Calm,Calm,-,N/A,,Haze,0,2013-02-21 07:44:00
11:49 PM,35.6,30.2,81,30.00,0.5,Calm,Calm,-,N/A,Fog,Fog,0,2013-02-21 07:49:00
11:53 PM,36.0,30.9,82,30.03,0.8,Calm,Calm,-,N/A,,Haze,0,2013-02-21 07:53:00